This is the latest recevied weather packets stored in our database for station/object EA3GKP-10. If no packets are shown the sender has not sent any weather packets the latest 10 day(s).
| Time | Temp. | Humidity | Pressure | Rain* | Wind** | Luminosity | Snow |
|---|---|---|---|---|---|---|---|
| 1777919712 | 20° C | - | - | 0 mm | 1.34 m/s, 100° | - | - |
| 1777919404 | 21.11° C | - | - | 0 mm | 1.34 m/s, 93° | - | - |
| 1777919101 | 21.11° C | - | - | 0 mm | 1.34 m/s, 110° | - | - |
| 1777918795 | 20.56° C | - | - | 0 mm | 0.89 m/s, 127° | - | - |
| 1777918488 | 20° C | - | - | 0 mm | 1.79 m/s, 104° | - | - |
| 1777918184 | 20.56° C | - | - | 0 mm | 2.68 m/s, 117° | - | - |
| 1777917878 | 21.11° C | - | - | 0 mm | 1.34 m/s, 70° | - | - |
| 1777917571 | 20.56° C | - | - | 0 mm | 2.24 m/s, 115° | - | - |
| 1777917267 | 21.11° C | - | - | 0 mm | 0 m/s | - | - |
| 1777916960 | 21.67° C | - | - | 0 mm | 1.79 m/s, 58° | - | - |
| 1777916654 | 21.67° C | - | - | 0 mm | 1.34 m/s, 59° | - | - |
| 1777916351 | 21.11° C | - | - | 0 mm | 0.89 m/s, 359° | - | - |
| 1777916045 | 22.22° C | - | - | 0 mm | 0.45 m/s, 111° | - | - |
| 1777915739 | 22.22° C | - | - | 0 mm | 0.89 m/s, 42° | - | - |
| 1777915436 | 21.11° C | - | - | 0 mm | 1.34 m/s, 69° | - | - |
| 1777915134 | 21.67° C | - | - | 0 mm | 1.79 m/s, 155° | - | - |
| 1777914830 | 21.67° C | - | - | 0 mm | 1.34 m/s, 132° | - | - |
| 1777914523 | 22.22° C | - | - | 0 mm | 0 m/s | - | - |
| 1777914219 | 21.67° C | - | - | 0 mm | 0.89 m/s, 59° | - | - |
| 1777913915 | 21.11° C | - | - | 0 mm | 1.79 m/s, 104° | - | - |
| 1777913611 | 22.22° C | - | - | 0 mm | 0 m/s | - | - |
| 1777913307 | 21.67° C | - | - | 0 mm | 1.79 m/s, 176° | - | - |
| 1777913003 | 21.11° C | - | - | 0 mm | 1.79 m/s, 83° | - | - |
| 1777912700 | 21.67° C | - | - | 0 mm | 2.24 m/s, 121° | - | - |
| 1777912396 | 21.11° C | - | - | 0 mm | 1.34 m/s, 141° | - | - |
* Rain latest hour (hover to see other rain measurements)
** Current wind speed in m/s (hover to see current wind gust speed)